Weather History for Cambridge, MD

Change the Weather History Date:

Sunday, October 6, 2013

  Actual Average (KESN) Record (KESN)
Temperature  
Mean Temperature 74 °F -  
Max Temperature 84 °F 75 °F 89 °F (2013)
Min Temperature 64 °F 51 °F 33 °F (1965)
Cooling Degree Days 9    
Growing Degree Days 24 (Base 50)    
Moisture  
Dew Point 66 °F    
Average Humidity 76    
Maximum Humidity 100    
Minimum Humidity 51    
Precipitation  
Precipitation 0.00 in - - ()
Sea Level Pressure  
Sea Level Pressure 30.01 in    
Wind  
Wind Speed 4 mph (SSE)    
Max Wind Speed 12 mph    
Max Gust Speed 18 mph    
Visibility 8 miles    
Events      
Averages and records for this station are not official NWS values.
T = Trace of Precipitation, MM = Missing Value Source: NWS Daily Summary

Daily Weather History Graph

Daily Weather History Graph

Search for Another Location

Airport:

Trip Planner

Search our weather history database for the weather conditions in past years. The results will help you decide how hot, cold, wet, or windy it might be!

Date:

Astronomy

Oct. 06, 2013 Rise Set
Actual Time 7:04 AM EDT 6:38 PM EDT
Civil Twilight 6:38 AM EDT 7:05 PM EDT
Nautical Twilight 6:07 AM EDT 7:36 PM EDT
Astronomical Twilight 5:36 AM EDT 8:06 PM EDT
Moon 8:45 AM EDT (10/6) 7:38 PM EDT (10/6)
Length of Visible Light 12h 27m
Length of Day
11h 34m
Waxing Crescent, 3% of the Moon is Illuminated
Oct 6
Waxing Crescent
Oct 11
First Quarter
Oct 18
Full
Oct 26
Last Quarter
Nov 3
New

Hourly Weather History & Observations

Time (EDT) Temp. Heat Index Dew Point Humidity Pressure Visibility Wind Dir Wind Speed Gust Speed Precip Events Conditions
12:17 AM 68.0 °F - 64.4 °F 88% 30.04 in 7.0 mi ESE 3.5 mph - N/A   Clear
12:37 AM 69.8 °F - 66.2 °F 88% 30.04 in 7.0 mi Calm Calm - N/A   Clear
12:57 AM 68.0 °F - 64.4 °F 88% 30.04 in 7.0 mi Calm Calm - N/A   Clear
1:17 AM 68.0 °F - 64.4 °F 88% 30.03 in 5.0 mi Calm Calm - N/A   Clear
1:37 AM 66.2 °F - 64.4 °F 94% 30.03 in 4.0 mi SSE 3.5 mph - N/A   Clear
1:57 AM 68.0 °F - 66.2 °F 94% 30.03 in 4.0 mi SSE 4.6 mph - N/A   Clear
2:17 AM 64.4 °F - 64.4 °F 100% 30.02 in 4.0 mi SE 3.5 mph - N/A   Clear
2:37 AM 68.0 °F - 66.2 °F 94% 30.02 in 4.0 mi SE 3.5 mph - N/A   Clear
2:57 AM 68.0 °F - 66.2 °F 94% 30.01 in 4.0 mi SE 3.5 mph - N/A   Clear
3:17 AM 68.0 °F - 66.2 °F 94% 30.01 in 4.0 mi Calm Calm - N/A   Clear
3:37 AM 68.0 °F - 66.2 °F 94% 30.00 in 4.0 mi SE 3.5 mph - N/A   Clear
3:57 AM 68.0 °F - 64.4 °F 88% 30.00 in 4.0 mi Calm Calm - N/A   Clear
4:17 AM 68.0 °F - 66.2 °F 94% 30.00 in 4.0 mi SE 4.6 mph - N/A   Clear
4:37 AM 68.0 °F - 66.2 °F 94% 30.00 in 2.5 mi SSE 3.5 mph - N/A   Clear
4:57 AM 68.0 °F - 66.2 °F 94% 30.01 in 3.0 mi SE 3.5 mph - N/A   Clear
5:17 AM 68.0 °F - 66.2 °F 94% 30.01 in 3.0 mi SE 3.5 mph - N/A   Clear
5:38 AM 68.0 °F - 66.2 °F 94% 30.01 in 2.5 mi Calm Calm - N/A   Scattered Clouds
5:58 AM 69.8 °F - 68.0 °F 94% 30.02 in 3.0 mi Calm Calm - N/A   Clear
6:18 AM 68.0 °F - 66.2 °F 94% 30.02 in 2.5 mi Calm Calm - N/A   Clear
6:38 AM 69.8 °F - 69.8 °F 100% 30.02 in 3.0 mi SE 3.5 mph - N/A   Clear
6:58 AM 68.0 °F - 66.2 °F 94% 30.02 in 3.0 mi Calm Calm - N/A   Clear
7:18 AM 69.8 °F - 68.0 °F 94% 30.02 in 4.0 mi SE 3.5 mph - N/A   Clear
7:38 AM 69.8 °F - 69.8 °F 100% 30.02 in 5.0 mi SSE 3.5 mph - N/A   Clear
7:58 AM 69.8 °F - 68.0 °F 94% 30.02 in 5.0 mi Calm Calm - N/A   Clear
8:18 AM 71.6 °F - 68.0 °F 88% 30.03 in 7.0 mi Calm Calm - N/A   Clear
8:38 AM 73.4 °F - 69.8 °F 88% 30.03 in 10.0 mi Calm Calm - N/A   Clear
8:58 AM 75.2 °F - 68.0 °F 78% 30.03 in 10.0 mi Calm Calm - N/A   Clear
9:18 AM 77.0 °F - 68.0 °F 74% 30.04 in 10.0 mi South 3.5 mph - N/A   Clear
9:38 AM 78.8 °F - 68.0 °F 69% 30.04 in 10.0 mi South 4.6 mph - N/A   Scattered Clouds
9:58 AM 78.8 °F - 68.0 °F 69% 30.04 in 10.0 mi South 5.8 mph - N/A   Clear
10:18 AM 78.8 °F - 68.0 °F 69% 30.04 in 10.0 mi South 3.5 mph - N/A   Scattered Clouds
10:38 AM 80.6 °F 83.2 °F 68.0 °F 65% 30.04 in 10.0 mi South 5.8 mph - N/A   Scattered Clouds
10:58 AM 80.6 °F 82.7 °F 66.2 °F 61% 30.04 in 10.0 mi SSW 4.6 mph - N/A   Clear
11:18 AM 80.6 °F 83.2 °F 68.0 °F 65% 30.04 in 10.0 mi South 6.9 mph - N/A   Clear
11:38 AM 82.4 °F 84.6 °F 66.2 °F 58% 30.03 in 10.0 mi South 5.8 mph - N/A   Clear
11:58 AM 82.4 °F 84.6 °F 66.2 °F 58% 30.03 in 10.0 mi SSE 6.9 mph - N/A   Clear
12:18 PM 82.4 °F 84.6 °F 66.2 °F 58% 30.02 in 10.0 mi South 6.9 mph - N/A   Clear
12:38 PM 84.2 °F 86.6 °F 66.2 °F 55% 30.02 in 10.0 mi SSE 8.1 mph - N/A   Clear
12:58 PM 84.2 °F 86.6 °F 66.2 °F 55% 30.02 in 10.0 mi South 8.1 mph - N/A   Clear
1:18 PM 82.4 °F 84.6 °F 66.2 °F 58% - 10.0 mi SSE 6.9 mph - N/A   Clear
1:38 PM 84.2 °F 86.6 °F 66.2 °F 55% 30.00 in 10.0 mi South 8.1 mph - N/A   Clear
1:58 PM 84.2 °F 85.6 °F 64.4 °F 51% 29.99 in 10.0 mi South 8.1 mph - N/A   Clear
2:19 PM 84.2 °F 85.6 °F 64.4 °F 51% 29.99 in 10.0 mi South 8.1 mph 16.1 mph N/A   Clear
2:39 PM 84.2 °F 85.6 °F 64.4 °F 51% 29.99 in 10.0 mi South 11.5 mph 16.1 mph N/A   Clear
2:59 PM 84.2 °F 85.6 °F 64.4 °F 51% 29.99 in 10.0 mi SSE 8.1 mph 16.1 mph N/A   Clear
3:19 PM 84.2 °F 85.6 °F 64.4 °F 51% 29.99 in 10.0 mi South 10.4 mph - N/A   Clear
3:39 PM 82.4 °F 83.9 °F 64.4 °F 54% 29.98 in 10.0 mi South 9.2 mph 16.1 mph N/A   Clear
3:59 PM 82.4 °F 83.9 °F 64.4 °F 54% 29.98 in 10.0 mi South 9.2 mph - N/A   Clear
4:19 PM 82.4 °F 83.9 °F 64.4 °F 54% 29.97 in 10.0 mi SSE 11.5 mph 18.4 mph N/A   Clear
4:39 PM 82.4 °F 83.9 °F 64.4 °F 54% 29.97 in 10.0 mi South 6.9 mph - N/A   Clear
4:59 PM 82.4 °F 83.4 °F 62.6 °F 51% 29.97 in 10.0 mi South 10.4 mph 16.1 mph N/A   Clear
5:19 PM 82.4 °F 83.4 °F 62.6 °F 51% 29.97 in 10.0 mi South 10.4 mph 17.3 mph N/A   Clear
5:39 PM 80.6 °F 81.8 °F 62.6 °F 54% 29.97 in 10.0 mi South 10.4 mph - N/A   Clear
5:59 PM 80.6 °F 82.7 °F 66.2 °F 61% 29.97 in 10.0 mi South 6.9 mph - N/A   Clear
6:19 PM 78.8 °F - 64.4 °F 61% 29.97 in 10.0 mi SSE 9.2 mph 16.1 mph N/A   Clear
6:39 PM 78.8 °F - 68.0 °F 69% 29.97 in 10.0 mi SSE 8.1 mph - N/A   Clear
6:59 PM 77.0 °F - 68.0 °F 74% 29.98 in 10.0 mi SSE 8.1 mph - N/A   Clear
9:39 PM 69.8 °F - 64.4 °F 83% 29.99 in 10.0 mi SSE 9.2 mph - N/A   Clear
9:59 PM 69.8 °F - 64.4 °F 83% 29.99 in 10.0 mi SSE 9.2 mph - N/A   Clear
10:19 PM 69.8 °F - 64.4 °F 83% 29.99 in 10.0 mi SSE 9.2 mph - N/A   Clear
10:39 PM 69.8 °F - 66.2 °F 88% 29.99 in 10.0 mi SSE 9.2 mph - N/A   Clear
11:00 PM 69.8 °F - 66.2 °F 88% 29.98 in 10.0 mi SSE 11.5 mph - N/A   Clear
11:20 PM 69.8 °F - 66.2 °F 88% 29.98 in 10.0 mi SSE 9.2 mph - N/A   Clear
11:40 PM 69.8 °F - 66.2 °F 88% 29.98 in 10.0 mi SSE 10.4 mph - N/A   Clear